Terug naar catalogus

CZ-3A DEB

LostHEO
NORAD 36965·DEBRIS·🇨🇳 China

Gelanceerd Feb 2, 2007 vanaf Xichang Satellite Launch Center

Loading…

Volgende Passages (komende 24 uur)

TLE

VerouderdSource: Space-Track

Epoch: Nov 15, 2025, 01:16 UTC

1 36965U 07003AB  25319.05285693  .00000110  00000-0  65290-2 0  9993
2 36965  26.2985  74.9871 7586072 206.9895 356.0015  1.75366248 81622

Volg CZ-3A DEB in realtime met AllMySat

Download on the App Store